Wind_Speed
3 2 2 2 2 1 1 2 2 2 3 3 2 2 2 1 2 2 2 2 2 2 2 2 2 2 2 2 2 2 3 3 3 3 3 3 4 5 5 5 5 6 6
3 3 3 3 2 1 1 2 2 2 2 2 2 1 1 1 1 1 1 1 1 1 1 1 1 2 2 2 2 3 3 4 4 4 5 5 6 6 7 7 7 7 7
4 4 3 3 2 2 1 1 2 2 2 1 1 1 0 1 1 0 1 1 1 1 1 2 2 2 3 3 3 3 4 5 5 5 6 6 6 7 7 7 8 8 8
5 4 3 3 3 3 2 2 2 1 1 1 1 1 1 1 1 1 1 1 1 1 1 2 2 3 3 4 4 4 4 5 6 6 6 6 6 7 7 8 9 9 10
5 4 4 4 4 3 3 3 3 2 2 2 2 2 2 2 2 2 2 2 2 2 2 2 2 3 3 4 4 4 5 5 6 7 7 8 8 8 9 9 9 10 11
5 5 5 5 4 4 4 4 4 3 3 3 3 3 3 3 3 3 3 3 3 3 4 4 4 4 4 4 5 6 6 7 7 8 8 8 9 10 10 10 10 11 12
5 5 5 5 5 5 4 4 4 4 4 4 4 4 4 4 4 5 5 5 5 5 5 5 5 6 6 7 7 7 8 8 8 9 9 10 11 11 11 12 12 12 13
6 6 6 6 6 6 5 5 5 5 5 5 5 5 5 6 6 7 7 7 7 7 7 7 7 7 8 8 9 9 9 10 10 10 11 11 12 12 13 14 14 15 15
6 6 7 7 7 7 7 6 6 7 7 6 7 7 7 8 8 8 8 8 9 9 9 9 9 9 10 10 10 10 11 11 12 12 13 14 14 15 15 15 16 17 17
6 7 7 7 7 7 7 7 8 8 8 8 8 8 9 9 9 9 9 10 10 11 10 11 12 11 12 13 13 13 13 14 15 15 15 16 16 17 17 18 18 18 19
7 8 8 8 8 8 8 8 8 9 9 9 9 10 10 11 11 11 10 11 11 11 12 13 14 14 14 15 15 16 17 17 18 18 18 19 19 20 20 20 20 20 21
7 8 9 9 10 9 9 9 9 10 10 11 12 12 12 12 12 13 13 13 13 14 15 15 15 16 16 17 18 18 19 20 21 21 21 22 22 22 22 22 23 23 24
7 7 8 9 10 10 10 10 11 11 12 13 13 13 13 14 14 14 15 15 15 16 16 16 16 17 17 18 20 21 22 22 23 24 23 24 24 24 24 25 25 26 27
7 7 7 8 9 10 11 11 12 12 13 14 14 14 15 15 15 15 16 16 17 17 17 18 18 19 19 20 21 22 23 23 24 24 25 26 26 27 27 28 28 29 29
6 7 7 8 9 10 11 12 13 13 13 14 15 16 17 17 17 17 18 18 18 18 18 19 20 21 21 21 22 23 23 23 24 25 27 27 29 30 29 30 31 31 31
6 6 8 9 10 10 11 12 12 13 14 15 16 16 17 17 17 18 18 18 19 19 19 20 21 22 22 22 23 23 25 26 27 28 29 29 30 30 31 32 31 31 32
6 7 8 9 10 11 11 12 13 13 14 15 16 16 17 18 17 18 18 19 19 20 21 22 23 23 24 24 24 25 26 27 28 29 30 30 31 32 31 32 32 32 32
7 8 8 9 11 12 12 12 13 15 16 17 17 16 17 17 18 19 20 20 21 21 22 23 24 25 25 26 26 27 28 28 29 30 30 31 32 32 32 32 32 33 34
8 9 10 10 11 12 13 14 15 16 17 17 18 18 18 19 20 21 21 22 22 23 23 24 25 26 27 27 28 29 29 30 31 32 32 33 33 32 33 33 34 34 34
9 10 11 12 13 13 14 15 16 16 17 18 19 19 19 20 21 21 21 22 24 24 25 26 26 27 28 28 29 30 30 31 32 32 33 33 33 34 34 34 35 35 36
10 11 11 12 13 15 15 16 17 17 18 18 19 20 21 21 22 22 23 24 25 26 26 27 27 28 28 29 30 31 32 32 33 33 34 34 35 35 36 36 36 37 37
11 12 12 13 14 15 16 17 17 17 18 19 20 20 21 22 23 23 24 25 25 26 27 28 28 28 29 30 31 32 32 33 34 34 34 35 35 36 36 37 37 38 38
12 13 14 15 15 16 16 17 17 18 18 19 20 21 21 22 23 24 24 25 26 26 27 29 29 30 31 32 32 33 33 34 34 34 35 35 36 36 37 38 38 39 39
13 14 15 16 16 17 17 17 18 18 19 20 20 21 22 23 24 25 26 26 26 27 28 29 30 32 32 32 32 33 34 34 34 35 35 36 37 37 38 38 39 39 39
16 16 17 17 17 18 18 18 19 20 21 21 22 22 23 24 25 25 26 27 27 28 28 29 30 31 32 32 33 33 34 34 34 35 35 36 37 37 38 37 38 39 39
19 19 18 18 19 19 20 20 21 22 22 23 23 24 25 25 26 27 27 27 28 28 29 30 31 31 31 32 32 33 34 34 35 35 35 36 36 36 36 36 37 37 38
Wind_Direction
205 203 192 172 141 108 106 140 137 117 111 121 120 123 115 121 144 148 148 152 149 150 163 179 188 189 190 202 215 223 234 238 241 243 245 257 261 264 263 262 259 261 263
191 196 191 188 171 152 140 161 161 143 142 138 126 126 84 78 117 149 146 158 172 187 195 204 221 219 222 235 243 241 241 246 251 257 265 272 272 267 266 265 262 264 264
185 186 189 192 192 196 186 177 171 174 175 156 139 148 343 33 61 128 185 190 201 217 228 235 241 248 249 253 259 257 256 261 261 261 267 272 271 267 266 269 265 264 264
188 194 198 200 208 210 204 199 196 191 203 210 206 209 267 301 302 270 265 264 258 254 253 256 260 262 257 259 264 268 267 267 267 265 266 269 273 274 276 275 270 268 268
197 197 201 210 220 219 218 224 224 231 231 228 232 226 246 276 280 277 273 277 280 279 280 281 277 268 264 269 274 276 272 272 272 271 269 271 274 276 277 276 275 272 273
206 209 213 216 218 221 228 231 234 241 238 235 240 243 252 263 273 279 272 271 279 282 285 279 273 267 272 279 280 277 273 271 273 274 272 274 276 276 276 275 276 275 276
211 215 215 219 220 223 228 231 238 241 239 239 246 254 254 255 262 267 266 267 273 277 280 278 276 271 272 277 280 282 278 276 276 274 273 276 277 276 275 276 276 277 278
213 213 214 218 221 225 230 233 239 240 242 245 251 258 266 263 264 265 268 269 271 275 274 274 276 275 275 276 278 281 282 279 278 277 277 279 279 278 277 277 278 278 277
216 219 220 224 230 232 237 240 246 248 249 252 255 259 262 264 268 269 270 271 271 275 274 272 278 280 279 277 276 279 283 283 281 279 279 279 278 279 280 279 280 280 278
223 225 226 231 235 239 244 247 248 251 254 256 259 259 262 267 268 269 272 272 270 273 274 277 277 279 279 281 280 280 282 283 283 282 281 281 280 279 280 280 281 280 279
231 233 234 233 237 243 247 249 250 253 256 260 261 261 263 266 267 268 271 274 275 277 277 278 280 279 278 279 279 281 282 283 283 281 282 281 281 280 279 279 279 279 278
238 241 242 243 245 247 252 255 256 258 261 264 264 264 264 264 266 265 267 272 276 275 277 279 281 281 281 280 279 281 282 282 281 281 281 281 280 280 279 279 279 279 278
251 253 251 250 251 250 254 258 264 266 267 268 270 270 268 267 267 268 271 275 279 278 278 279 281 281 284 285 284 284 284 283 283 283 281 280 279 279 279 278 279 279 278
259 261 258 257 256 255 260 264 268 272 273 270 269 271 271 272 271 271 273 276 278 278 277 278 280 282 283 284 284 286 284 283 284 283 281 282 282 282 281 279 279 279 279
267 264 262 264 262 261 265 269 271 271 273 272 271 272 272 272 272 273 274 276 277 274 275 276 279 281 282 283 283 285 285 284 284 283 283 284 284 282 281 281 280 279 278
266 262 264 265 268 267 268 271 272 273 278 278 275 276 273 274 276 276 277 278 278 279 277 276 280 282 282 284 284 285 284 284 284 283 283 284 283 282 281 282 280 279 278
268 268 269 270 274 276 274 277 280 280 281 283 278 276 275 277 278 280 278 280 280 281 281 280 281 283 283 285 284 286 286 284 285 284 284 284 282 282 283 284 282 281 281
275 275 279 277 277 280 279 282 283 282 283 284 285 282 279 282 280 280 280 281 283 284 283 284 284 285 286 287 288 288 288 286 286 287 286 285 284 284 284 284 284 282 282
281 278 278 281 283 284 284 285 286 285 285 285 284 283 283 283 283 281 281 281 282 284 285 287 286 287 288 289 289 289 289 287 287 287 286 285 286 286 286 284 285 284 284
288 285 283 286 285 284 286 287 288 288 286 286 285 283 284 284 284 283 281 282 282 284 286 287 288 288 288 288 288 288 288 287 287 287 286 284 284 285 286 285 285 286 286
296 292 291 293 289 287 289 291 291 289 289 287 284 284 285 286 285 284 283 283 284 285 286 287 289 289 288 287 288 288 288 287 287 287 287 285 285 285 285 285 285 286 285
300 299 297 296 293 294 295 295 294 292 291 289 287 286 288 287 285 285 285 286 286 286 286 287 288 288 289 289 288 289 289 287 287 288 287 287 287 286 286 285 285 285 284
306 306 302 299 298 297 297 297 297 294 293 293 291 289 289 289 289 290 290 289 289 288 288 289 290 289 290 291 290 290 289 288 288 288 288 288 287 286 285 285 285 285 285
309 307 305 304 301 299 297 298 298 296 295 294 294 292 290 290 291 292 291 290 290 290 290 289 290 290 291 291 290 289 288 287 289 289 289 288 288 287 286 286 286 286 287
309 309 308 305 302 300 297 297 297 296 295 295 295 293 293 293 293 293 293 294 293 293 292 291 291 292 292 292 290 290 289 288 289 290 290 290 289 289 289 288 288 288 288
307 306 306 304 303 301 299 299 298 298 297 296 296 295 295 295 295 294 295 296 295 295 294 294 293 293 293 293 292 292 292 292 292 292 292 292 292 291 291 291 290 289 290
Height
5905 5905 5905 5905 5906 5906 5906 5906 5906 5906 5906 5906 5906 5906 5906 5906 5906 5906 5905 5905 5905 5905 5905 5905 5905 5905 5905 5905 5905 5904 5904 5904 5904 5904 5904 5904 5903 5903 5902 5902 5902 5901 5901
5904 5905 5905 5905 5906 5906 5906 5906 5906 5906 5907 5907 5907 5906 5906 5906 5906 5906 5906 5906 5905 5905 5905 5905 5905 5905 5905 5905 5904 5904 5904 5904 5904 5903 5903 5903 5902 5902 5901 5901 5900 5900 5900
5904 5905 5905 5906 5906 5906 5906 5906 5906 5907 5907 5907 5907 5907 5907 5907 5907 5906 5906 5906 5906 5905 5905 5905 5905 5905 5905 5904 5904 5904 5903 5903 5903 5902 5902 5901 5901 5900 5900 5899 5899 5899 5898
5904 5904 5905 5905 5906 5906 5906 5906 5907 5907 5907 5907 5907 5907 5907 5907 5907 5907 5906 5906 5906 5905 5905 5905 5904 5904 5904 5904 5903 5903 5902 5902 5901 5901 5901 5900 5899 5899 5898 5898 5897 5897 5896
5903 5904 5904 5905 5905 5906 5906 5906 5907 5907 5907 5907 5907 5907 5907 5907 5907 5907 5906 5906 5906 5905 5905 5905 5904 5904 5903 5903 5903 5902 5901 5901 5900 5900 5899 5899 5898 5897 5897 5896 5895 5895 5894
5903 5903 5903 5904 5904 5905 5905 5906 5906 5906 5906 5906 5907 5907 5907 5907 5906 5906 5906 5905 5905 5905 5904 5904 5904 5903 5903 5902 5902 5901 5900 5899 5899 5898 5898 5897 5896 5895 5895 5894 5893 5893 5892
5902 5902 5903 5903 5904 5904 5904 5905 5906 5905 5906 5906 5906 5906 5906 5906 5906 5905 5905 5905 5904 5904 5903 5903 5902 5902 5902 5901 5900 5899 5899 5898 5897 5896 5895 5895 5894 5893 5892 5891 5891 5890 5889
5900 5901 5902 5902 5903 5903 5904 5904 5904 5905 5905 5905 5905 5905 5905 5906 5905 5904 5904 5904 5903 5902 5902 5901 5901 5900 5900 5899 5898 5898 5897 5896 5895 5894 5893 5892 5891 5890 5889 5888 5888 5887 5886
5899 5900 5901 5901 5902 5902 5903 5903 5903 5904 5904 5904 5904 5904 5904 5904 5904 5903 5903 5902 5901 5901 5900 5899 5899 5898 5897 5896 5896 5895 5894 5893 5892 5891 5890 5889 5888 5887 5886 5885 5884 5883 5882
5898 5898 5899 5900 5900 5901 5901 5901 5902 5902 5902 5902 5902 5902 5902 5902 5902 5901 5901 5900 5899 5899 5898 5897 5896 5896 5895 5894 5893 5892 5891 5890 5889 5888 5887 5886 5884 5883 5882 5881 5880 5878 5877
5896 5897 5897 5898 5898 5899 5899 5899 5900 5900 5900 5900 5900 5900 5900 5899 5899 5899 5898 5898 5897 5896 5895 5895 5894 5893 5891 5890 5889 5888 5887 5886 5885 5884 5882 5881 5880 5878 5877 5876 5875 5873 5872
5894 5895 5895 5896 5896 5896 5897 5897 5897 5898 5897 5897 5897 5897 5897 5896 5896 5896 5895 5895 5894 5893 5892 5891 5890 5889 5888 5887 5885 5884 5883 5881 5880 5879 5877 5876 5874 5873 5872 5871 5869 5868 5866
5893 5893 5893 5893 5894 5894 5894 5895 5895 5895 5894 5894 5894 5894 5893 5893 5893 5893 5892 5891 5890 5889 5888 5887 5886 5885 5884 5882 5881 5879 5878 5876 5875 5873 5872 5870 5868 5867 5866 5865 5863 5862 5860
5891 5891 5891 5891 5892 5892 5892 5892 5892 5892 5891 5891 5890 5890 5890 5889 5889 5889 5888 5887 5886 5885 5884 5883 5881 5880 5879 5877 5876 5874 5872 5871 5869 5867 5865 5864 5862 5861 5859 5858 5856 5855 5853
5889 5889 5889 5889 5889 5889 5889 5889 5889 5888 5888 5887 5887 5886 5886 5885 5885 5884 5883 5882 5882 5881 5880 5878 5877 5875 5873 5872 5870 5868 5866 5864 5863 5861 5859 5857 5855 5853 5851 5850 5848 5847 5845
5887 5887 5887 5887 5887 5886 5886 5886 5885 5885 5884 5883 5883 5882 5882 5881 5880 5879 5878 5877 5876 5875 5874 5873 5871 5869 5867 5866 5864 5862 5860 5858 5857 5854 5852 5850 5848 5845 5843 5842 5840 5838 5836
5885 5884 5884 5884 5884 5884 5883 5882 5882 5881 5880 5879 5878 5878 5877 5876 5875 5874 5873 5872 5871 5870 5868 5867 5865 5863 5861 5860 5858 5856 5853 5851 5849 5847 5845 5842 5840 5837 5835 5833 5831 5829 5827
5883 5882 5882 5881 5881 5880 5880 5879 5878 5877 5876 5875 5874 5873 5872 5871 5871 5869 5868 5867 5866 5864 5863 5861 5859 5857 5855 5853 5851 5848 5846 5843 5841 5839 5836 5834 5831 5829 5827 5824 5822 5820 5818
5880 5879 5879 5878 5878 5877 5876 5875 5874 5873 5872 5871 5869 5868 5867 5866 5865 5864 5863 5861 5860 5858 5856 5854 5852 5850 5848 5846 5844 5841 5838 5836 5833 5830 5828 5825 5823 5820 5818 5816 5813 5811 5809
5877 5876 5875 5875 5874 5873 5872 5871 5869 5868 5867 5865 5864 5863 5862 5861 5859 5858 5857 5855 5854 5852 5850 5848 5846 5843 5841 5838 5836 5833 5830 5828 5825 5822 5819 5817 5814 5811 5809 5806 5804 5801 5799
5874 5873 5872 5871 5870 5868 5867 5866 5865 5863 5862 5860 5859 5858 5857 5855 5853 5852 5850 5849 5847 5845 5843 5841 5838 5836 5833 5830 5828 5825 5822 5819 5816 5813 5810 5807 5805 5802 5799 5797 5794 5791 5789
5871 5869 5868 5867 5865 5864 5862 5861 5860 5858 5857 5855 5854 5852 5850 5849 5847 5845 5843 5841 5840 5838 5835 5833 5831 5828 5825 5823 5820 5816 5813 5810 5807 5804 5801 5798 5795 5792 5789 5786 5784 5781 5778
5867 5866 5864 5862 5861 5859 5858 5856 5854 5853 5851 5850 5848 5846 5844 5842 5840 5838 5836 5834 5832 5830 5828 5825 5823 5820 5817 5814 5811 5807 5804 5801 5798 5795 5791 5788 5785 5782 5779 5776 5773 5770 5767
5864 5862 5860 5858 5856 5854 5853 5851 5849 5848 5846 5844 5842 5840 5838 5836 5834 5831 5829 5827 5824 5822 5819 5817 5814 5811 5808 5804 5801 5798 5795 5791 5788 5785 5782 5778 5775 5772 5768 5765 5762 5759 5756
5860 5858 5856 5853 5851 5850 5848 5846 5844 5842 5840 5838 5836 5833 5831 5829 5827 5824 5822 5819 5816 5814 5811 5807 5804 5801 5798 5795 5792 5788 5785 5782 5778 5775 5772 5768 5764 5761 5758 5754 5751 5748 5745
5855 5853 5851 5848 5846 5844 5842 5840 5838 5836 5834 5831 5829 5826 5824 5821 5819 5816 5814 5811 5808 5805 5802 5799 5796 5792 5789 5786 5782 5779 5775 5772 5769 5765 5762 5758 5754 5751 5747 5744 5741 5737 5734